Location: *
(30.4403°N, 47.7808°E)
Time: 10:21:10
(UTC+00:00)

Daily predictions for brighter satellites

Satellite Brightness Start Highest point End
(mag) Time Altitude Azimuth Time Altitude Azimuth Time Altitude Azimuth
CZ-3 Stage 3 3.6 15:09:33 10° SSW 15:13:57 44° SE 15:31:44 10° ENE
CSL-04 Rocket 3.8 15:22:24 10° SSE 15:27:36 55° ENE 15:32:45 10° N
DELTA 2 R/B (1) 3.6 15:26:31 10° WNW 15:32:06 87° NNE 15:37:42 10° ESE
Atlas Centaur 2 3.4 15:27:01 10° W 15:32:46 35° SSW 15:37:24 10° SE
NOAA 11 4.2 15:27:47 10° SSE 15:33:12 90° WSW 15:38:40 10° NNW
Lacrosse 4 Rocket 3.0 15:29:06 10° NW 15:33:18 41° WSW 15:37:24 10° S
NOSS 3-1 (C) 4.3 15:25:21 10° NNW 15:33:24 78° ENE 15:42:18 10° SSE
GEOS 3 Rocket 3.6 15:31:06 10° SSE 15:36:11 89° ENE 15:41:23 10° NNW
Cosmos 1809 Rocket 4.4 15:30:34 10° N 15:36:41 82° E 15:42:47 10° S
OAO 3 Rocket 3.2 15:31:56 10° WNW 15:36:50 86° SSW 15:41:37 10° ESE
Cosmos 1892 Rocket 4.4 15:37:11 10° NNE 15:41:09 31° E 15:45:06 10° SE
H-2A R/B 3.2 15:36:57 10° ESE 15:41:10 24° ENE 15:45:20 10° NNE
STARLINK-1162 4.3 15:41:04 10° NW 15:45:08 54° SW 15:49:11 10° SSE
Delta 2 Rocket 4.2 15:41:11 10° WNW 15:45:35 50° N 15:50:06 12° E
USA 234 3.3 15:39:24 10° NE 15:45:59 89° SE 15:52:31 10° SW
USA 186 3.7 15:45:24 13° E 15:46:50 16° ENE 15:48:59 10° NNE
STARLINK-1129 4.4 15:44:17 10° NW 15:48:18 51° SW 15:52:18 10° SSE
Cosmos 1745 Rocket 4.2 15:42:23 10° N 15:48:28 50° E 15:54:27 10° SSE
Okean 1-7 Rocket 4.3 15:44:36 10° NNE 15:48:30 31° E 15:52:23 10° SE
Cosmos 1626 3.9 15:48:43 10° NE 15:50:45 14° ENE 15:51:08 14° E
ADEOS Rocket 4.0 15:45:41 10° N 15:52:01 54° WNW 15:57:44 10° SSW
Orbus 7S? 4.4 15:50:44 10° N 15:52:08 14° NE 15:52:43 13° ENE
Cosmos 2237 Rocket 3.6 15:47:17 10° SW 15:52:34 43° WNW 15:57:55 10° N
Cosmos 1544 Rocket 3.9 15:49:35 10° SSE 15:53:41 41° E 15:57:49 10° NNE
Cosmos 1242 Rocket 3.6 15:52:16 10° NNW 15:55:35 45° W 15:58:55 10° SSW
Meteor 2-5 Rocket 3.7 15:52:33 10° N 15:58:05 59° E 16:03:32 10° SSE
Milstar 3 Cent rocket 4.5 15:51:21 10° W 15:58:55 47° SSW 16:14:13 11° SE
Cosmos 1269 Rocket 4.0 15:57:31 10° SSW 16:02:47 85° ESE 16:08:05 10° NNE
HJ-1C 3.2 16:00:08 10° SSE 16:03:27 78° ENE 16:06:47 10° N
CZ-2C R/B 4.5 15:59:54 10° NE 16:04:05 31° E 16:08:12 10° SSE
Cosmos 1805 4.4 16:02:19 10° SSW 16:06:05 47° W 16:09:51 10° N
ARGOS 3.7 16:03:01 12° SE 16:07:25 36° ENE 16:12:19 10° N
Cosmos 2278 Rocket 2.2 16:01:45 10° NNW 16:07:27 89° WSW 16:13:07 10° SSE
CZ-2C R/B 3.7 16:05:53 10° NE 16:09:34 21° E 16:09:34 21° E
Cosmos 2315 Rocket 4.1 16:04:50 10° SSE 16:10:53 53° E 16:17:00 10° NNE
Meteor 1-24 Rocket 3.6 16:08:36 10° N 16:13:59 59° E 16:19:12 10° SSE
CZ-4 R/B 4.3 16:15:17 10° SW 16:17:59 18° W 16:20:40 10° NW
OAO 2 Rocket 3.3 16:12:53 10° WNW 16:18:02 90° NNE 16:20:37 29° ESE
FALCON 9 R/B 4.2 16:13:39 10° W 16:21:10 78° S 16:49:44 24° ESE
SL-24 R/B 4.3 16:18:27 10° NNE 16:22:27 38° E 16:23:23 33° SE
IRS-1A Rocket 4.2 16:17:23 10° SSE 16:22:55 73° ENE 16:28:36 10° N
SEDSat Delta rocket 3.2 16:20:10 10° SW 16:24:35 48° SSE 16:25:42 38° ESE
SL-08 RB Rocket 4.3 16:24:40 33° E 16:25:23 35° ENE 16:29:29 10° N
Cosmos 1470 2.6 16:22:23 10° S 16:26:10 61° E 16:29:59 10° NNE
CZ-2C R/B 3.0 16:22:43 15° SSE 16:26:57 61° ENE 16:31:50 10° N
SJ-6B 3.0 16:30:45 45° ESE 16:31:24 51° ENE 16:35:22 10° N
Cosmos 1758 3.2 16:29:11 10° S 16:33:13 70° E 16:37:18 10° N
Cosmos 2369 Rocket 4.3 16:33:32 10° NE 16:34:13 11° NE 16:34:13 11° NE
Resurs 01 Rocket 3.7 16:37:58 14° NE 16:37:58 14° NE 16:38:54 10° NNE
Cosmos 304 Rocket 3.6 16:34:33 10° NNW 16:39:21 82° ENE 16:41:17 36° SSE
Meteor 2-15 4.3 16:33:55 10° S 16:39:59 86° E 16:46:03 10° N
SPOT 3 Rocket 3.9 16:39:25 41° E 16:40:05 43° ENE 16:45:00 10° N
GOES 2 Rocket 3.3 16:36:32 10° W 16:40:51 62° S 16:41:56 48° SE
Cosmos 1709 Rocket 3.8 16:39:54 10° N 16:46:07 82° E 16:50:49 18° S
FREGAT/IRIS 4.3 16:49:51 29° NW 16:49:51 29° NW 16:51:34 10° NNW
Cosmos 1331 Rocket 4.0 16:46:55 10° NNW 16:52:03 75° WSW 16:54:19 34° S
NOSS 3-3 (A) 3.6 16:46:59 10° SSW 16:52:31 65° ESE 16:58:34 10° NE
NOSS 3-3 (C) 3.6 16:47:06 10° SSW 16:52:38 65° ESE 16:58:40 10° NE
Ariane Rocket 4.0 16:51:36 10° S 16:56:26 45° W 17:01:17 10° NNW
Delta 128 4.3 16:52:42 10° WSW 16:57:54 55° SSE 16:58:11 54° SSE
MOS 1 Rocket 3.5 16:53:54 10° NNE 16:59:13 72° E 17:00:27 52° SSE
SL-14 R/B 3.9 16:55:25 10° NNW 16:59:22 55° W 17:00:03 48° SW
Cosmos 1943 Rocket 3.6 16:56:48 10° N 16:59:46 22° NE 16:59:46 22° NE
Centaur D AC-28 4.1 17:00:12 10° SW 17:01:27 11° SSW 17:01:37 11° SSW
SL-16 R/B 4.2 17:01:31 10° WSW 17:06:20 28° WNW 17:11:10 10° N
ATLAS 3B CENTAUR R/B 4.0 17:16:35 10° SW 17:16:45 10° SW 17:16:45 10° SW
USA 186 4.4 17:17:12 19° WSW 17:17:36 19° W 17:20:09 10° NW
H-2A R/B 3.7 17:15:35 10° SSW 17:20:21 32° W 17:25:03 10° NW
Cosmos 1626 Rocket 4.5 17:16:26 10° NNW 17:20:04 46° WNW 17:20:04 46° WNW
ATLAS 5 CENTAUR R/B 3.7 17:17:58 10° SW 17:24:28 46° SSE 17:25:58 44° SE
Cosmos 1626 4.4 17:23:00 10° NW 17:25:45 22° W 17:25:45 22° W
Cosmos 2297 4.4 17:33:37 10° NNW 17:38:57 50° W 17:38:57 50° W
CZ-2C R/B 4.0 17:45:23 10° N 17:50:00 34° WNW 17:51:06 31° W
Cosmos 2369 Rocket 4.2 18:14:05 10° NNW 18:16:02 22° NNW 18:16:02 22° NNW
Cosmos 2227 Rocket 4.4 23:46:28 16° ESE 23:48:06 18° E 23:51:45 10° ENE
